Location: Newark
(41.6500°N, 71.4833°W)
Time: 20:01:13
(UTC+00:00)

Transit 2A Rocket - Pass Details

Date: 27 January 2020
Orbit: 592 x 911 km, 66.7° (Epoch: 16 February)

Event Time Altitude Azimuth Distance (km) Brightness Sun altitude
Rises 09:22:33 0° 208° (SSW) 2,844 - -30.0°
Reaches altitude 10° 09:24:48 10° 208° (SSW) 1,928 - -29.6°
Maximum altitude 09:29:06 87° 118° (ESE) 598 - -28.7°
Exits shadow 09:31:25 27° 31° (NNE) 1,159 6.2 -28.3°
Drops below altitude 10° 09:33:26 10° 31° (NNE) 1,944 7.4 -27.9°
Sets 09:35:42 0° 31° (NNE) 2,870 8.4 -27.5°
